Fort Indiantown Gap, PA

10:01 PM EST on December 14, 2019 (GMT -0500)
Muir Army Air Field

Weather History for KMUI - October, 2019

Change the Weather History Date:

Saturday, October 26, 2019

  Actual Average Record
Temperature  
Mean Temperature 51 °F -  
Max Temperature 61 °F 58 °F 70 °F (2010)
Min Temperature 42 °F 41 °F 26 °F (2013)
Degree Days  
Heating Degree Days 14    
Growing Degree Days 1 (Base 50)    
Moisture  
Dew Point 48 °F    
Average Humidity 83    
Maximum Humidity 97    
Minimum Humidity 58    
Precipitation  
Precipitation 0.03 in - - ()
Sea Level Pressure  
Sea Level Pressure 30.21 in    
Wind  
Wind Speed 1 mph (NE)    
Max Wind Speed 6 mph    
Max Gust Speed -    
Visibility 10 miles    
Events Rain    
Averages and records for this station are not official NWS values.
T = Trace of Precipitation, MM = Missing Value Source: NWS Daily Summary

Daily Weather History Graph

Daily Weather History Graph

Search for Another Location

Airport or City:

Astronomy

Oct. 26, 2019 Rise Set
Actual Time 7:28 AM EDT 6:10 PM EDT
Civil Twilight 7:01 AM EDT 6:38 PM EDT
Nautical Twilight 6:29 AM EDT 7:10 PM EDT
Astronomical Twilight 5:57 AM EDT 7:42 PM EDT
Moon 5:21 AM EDT (10/26) 5:45 PM EDT (10/26)
Length of Visible Light 11h 37m
Length of Day
10h 41m
Waning Crescent, 3% of the Moon is Illuminated
Oct 26
Waning Crescent
Oct 27
New
Nov 4
First Quarter
Nov 12
Full
Nov 19
Last Quarter

Hourly Weather History & Observations

Time (EDT) Temp. Dew Point Humidity Pressure Visibility Wind Dir Wind Speed Gust Speed Precip Events Conditions
12:56 AM 50.9 °F 47.1 °F 87% 30.19 in 10.0 mi Calm Calm - N/A   Clear
1:56 AM 50.9 °F 47.1 °F 87% 30.19 in 10.0 mi Calm Calm - N/A   Clear
2:56 AM 47.5 °F 45.5 °F 93% 30.19 in 10.0 mi Calm Calm - N/A   Clear
3:56 AM 47.1 °F 45.5 °F 94% 30.19 in 10.0 mi Calm Calm - N/A   Clear
4:56 AM 45.1 °F 44.1 °F 96% 30.20 in 10.0 mi Calm Calm - N/A   Clear
5:56 AM 44.1 °F 42.8 °F 95% 30.22 in 10.0 mi Calm Calm - N/A   Clear
6:56 AM 43.3 °F 42.6 °F 97% 30.24 in 8.0 mi Calm Calm - N/A   Clear
7:56 AM 42.3 °F 41.5 °F 97% 30.25 in 8.0 mi Calm Calm - N/A   Clear
8:56 AM 48.0 °F 46.6 °F 95% 30.27 in 10.0 mi Calm Calm - N/A   Clear
9:56 AM 55.2 °F 47.8 °F 76% 30.25 in 10.0 mi ESE 4.6 mph - N/A   Clear
10:56 AM 58.3 °F 45.3 °F 62% 30.24 in 10.0 mi ENE 5.8 mph - N/A   Scattered Clouds
11:56 AM 59.7 °F 45.3 °F 59% 30.24 in 10.0 mi NE 4.6 mph - N/A   Scattered Clouds
12:56 PM 60.8 °F 46.4 °F 59% 30.23 in 10.0 mi East 4.6 mph - N/A   Overcast
1:56 PM 60.4 °F 45.5 °F 58% 30.21 in 10.0 mi East 3.5 mph - N/A   Mostly Cloudy
2:56 PM 59.7 °F 46.8 °F 62% 30.20 in 10.0 mi ENE 3.5 mph - N/A   Overcast
3:06 PM 59.0 °F 46.4 °F 63% 30.20 in 10.0 mi ENE 4.6 mph - N/A   Light Drizzle
3:56 PM 57.9 °F 50.0 °F 75% 30.20 in 10.0 mi ENE 3.5 mph - 0.00 in Rain Light Rain
4:56 PM 56.7 °F 52.2 °F 85% 30.20 in 10.0 mi Calm Calm - 0.00 in   Light Drizzle
5:15 PM 55.4 °F 51.8 °F 88% 30.21 in 10.0 mi Calm Calm - N/A   Overcast
5:34 PM 55.4 °F 51.8 °F 88% 30.21 in 10.0 mi Calm Calm - N/A Rain Light Rain
5:50 PM 55.4 °F 50.0 °F 82% 30.22 in 10.0 mi Calm Calm - N/A   Overcast
5:56 PM 55.0 °F 50.4 °F 84% 30.21 in 10.0 mi Calm Calm - 0.01 in   Overcast
6:56 PM 54.3 °F 49.3 °F 83% 30.19 in 10.0 mi NE 3.5 mph - N/A   Overcast
7:56 PM 54.3 °F 49.3 °F 83% 30.20 in 10.0 mi NNE 3.5 mph - N/A   Overcast
8:56 PM 54.7 °F 48.9 °F 81% 30.20 in 10.0 mi North 3.5 mph - N/A Rain Light Rain
9:56 PM 52.7 °F 50.7 °F 93% 30.19 in 10.0 mi NNE 4.6 mph - 0.02 in Rain Light Rain
10:21 PM 53.6 °F 50.0 °F 88% 30.19 in 10.0 mi NNE 3.5 mph - N/A   Overcast
10:56 PM 52.9 °F 50.9 °F 93% 30.18 in 10.0 mi NE 3.5 mph - 0.00 in   Mostly Cloudy
11:44 PM 53.6 °F 51.8 °F 94% 30.15 in 10.0 mi NE 3.5 mph - N/A   Overcast
11:52 PM 53.6 °F 51.8 °F 94% 30.15 in 10.0 mi NE 3.5 mph - N/A   Overcast
11:56 PM 53.1 °F 51.4 °F 94% 30.15 in 10.0 mi NE 3.5 mph - N/A   Overcast